7 * 24
多渠道服务支持
目前公开可查询的星链卫星公开数据库中暂未检索到STARLINK-38102(NORAD 100023)的对应专项参数信息。根据已有的星链星座公开信息可生成参考摘要如下: STARLINK-38102是SpaceX星链第三代低轨通信卫星,对应NORAD编号100023,属于星链Gen3组网批次。该系列单星质量约2000公斤,运行于320-480公里的甚低地球轨道,下行通信容量达1Tbps,搭载氩霍尔推进器与激光星间链路,支持千兆级低延迟网络传输。作为星链全球组网的组成部分,该卫星主要承担偏远地区、海洋场景的互联网覆盖任务,与现有在轨星链卫星协同构建太空通信网络,目前处于在轨运行状态。
美国
(US)
| 数据来源 | 国际轨道数据 |
| 星历时间: | 2026-09-14T07:21:56+0800 8小时前 查看轨道信息 |
| 半长轴: | 6715.373km |
| 偏心率: | 0.0003269 |
| 轨道倾角: | 70.003° |
| 近地点辐角 | 272.359° |
| 升交点赤经 | 213.417° |
| 平近点角 | 87.723° |
| 近地点: | 335.04km |
| 远地点: | 339.432km |
| 周期: | 91.278分钟 |
| 每日圈数: | 15.776027 |